Miscellaneous Local Product
Issued by NWS Hastings, NE

Home | Current Version | Previous Version | Graphics & Text | Print | Product List | Glossary On
Versions: 1 2 3 4 5 6 7 8 9 10 11 12 13 14 15 16 17 18 19 20 21 22 23 24 25 26 27 28 29 30 31 32 33 34 35 36 37 38 39 40 41 42 43 44 45 46 47 48 49 50
000
AXUS43 KGID 210002
MISGRI

GID CWA HOURLY WEATHER ROUNDUP
NATIONAL WEATHER SERVICE HASTINGS NE
700 PM CDT WED SEP 20 2017

NOTE: "FAIR" INDICATES FEW OR NO CLOUDS BELOW 12,000 FEET WITH NO
SIGNIFICANT WEATHER AND/OR OBSTRUCTIONS TO VISIBILITY.

...SOUTH CENTRAL NEBRASKA...

CITY           SKY/WX    TMP DP  RH WIND       PRES   REMARKS
GRAND ISLAND   CLEAR     75  43  31 NE5       29.88R
HASTINGS       CLEAR     74  43  32 E6        29.88R
KEARNEY        CLEAR     73  44  35 E7        29.89R
ORD            CLEAR     73  44  35 E3        29.87R
YORK           CLEAR     73  48  40 NE7       29.87S
AURORA         CLEAR     72  49  45 NE3       29.87S
LEXINGTON      CLEAR     76  39  26 SE8       29.89R
HOLDREGE       CLEAR     74  40  29 E6        29.89R
HEBRON         CLEAR     79  50  35 NE6       29.85R

...NEBRASKA PANHANDLE...

CITY           SKY/WX    TMP DP  RH WIND       PRES   REMARKS
CHADRON        CLEAR     74  35  24 S20       29.78S
ALLIANCE       CLEAR     70  36  28 SE9       29.84S
SCOTTSBLUFF    CLEAR     75  35  23 SE9       29.81S
SIDNEY         CLEAR     72  28  19 S18G25    29.88R

...WESTERN AND NORTH CENTRAL NEBRASKA...

CITY           SKY/WX    TMP DP  RH WIND       PRES   REMARKS
VALENTINE      CLEAR     76  32  20 S12       29.84R
AINSWORTH      CLEAR     70  42  36 S5        29.87S
ONEILL         CLEAR     72  44  35 SE3       29.88S
BROKEN BOW     CLEAR     73  41  31 SE9       29.88R
IMPERIAL       CLEAR     75  27  17 S13       29.87F
NORTH PLATTE   CLEAR     73  42  32 E7        29.87S
MCCOOK         CLEAR     77  35  21 SE7       29.87R

...EASTERN NEBRASKA...

CITY           SKY/WX    TMP DP  RH WIND       PRES   REMARKS
NORFOLK        CLEAR     71  48  43 E5        29.86S
SO SIOUX CITY  CLEAR     72  48  42 NE5       29.87R
TEKAMAH        CLEAR     72  53  51 N3        29.87R
COLUMBUS       CLEAR     72  50  45 E6        29.88R
ALBION         CLEAR     71  52  51 SE3       29.88S
OMAHA EPPLEY   CLEAR     75  52  44 N6        29.85R
OFFUTT AFB     CLEAR     75  54  48 N5        29.84S
MILLARD        CLEAR     77  53  44 N3        29.86S
LINCOLN        CLEAR     75  52  44 NE8       29.87R
NEBRASKA CITY  CLEAR     76  59  55 N6        29.85S
BEATRICE       CLEAR     77  57  49 NE6       29.85S
FALLS CITY     CLEAR     80  64  58 N3        29.81S

...NORTHERN KANSAS...

CITY           SKY/WX    TMP DP  RH WIND       PRES   REMARKS
GOODLAND       CLEAR     75  32  20 S16       29.89S
HILL CITY      CLEAR     81  34  18 E6        29.87R
NORTON         CLEAR     75  28  17 E5        29.87R
PHILLIPSBURG   CLEAR     81  36  19 NE6       29.86S
SMITH CENTER   CLEAR     79  43  27 NE8       29.86R
HAYS           CLEAR     82  45  27 E10       29.84R
RUSSELL        CLEAR     82  49  31 E10       29.83R
CONCORDIA      CLEAR     78  58  49 E5        29.83R
SALINA         CLEAR     86  56  35 NE3       29.81R
TOPEKA         MOCLDY    85  74  69 SE3       29.80R HX  92



USA.gov is the U.S. government's official web portal to all federal, state and local government web resources and services.